www.pogodaiklimat.ru

Погода и климат >> Архив погоды >> Йемен >> Аден


ПОГОДА в Адене

  • Прогноз погоды в Адене
  • Монитор погоды в Адене

АРХИВ ПОГОДЫ в Адене

Время (UTC), дата Ветер
(напр.,м/с)
 
Видим.   Явления Облачность Т
(С)
Тd
(С)
f
(%)
Тe
(С)
Тes
(С)
Комфортность P
(гПа)
Po
(гПа)
Тmin
(С)
Tmax
(С)
R
(мм)
R24
(мм)
S
(см)
09 17.04 0 {ливн. осадки, туман} н/о +5.2 +4.7 97 +4 +34 опасность
простуды
802.7
12 17.04 0-9
{11}
мгла н/о +34.6 +10.7 23 +34 +49 очень
жарко
1007.4 1007.1 317
21 17.04 0-8
{8}
мгла н/о +28.0 +12.3 38 +29 +29 жарко 1010.3 1010.0 +22.7 +37.6
00 18.04 С 8-9
{16}
7000 м мгла 6/3 1200 м
[Sc diur, vesp Ac trans]
+23.1 +10.9 46 +25 +25 комфорт 1010.5 1010.2
03 18.04 СВ 6-7
{9}
7000 м мгла 6/3 1200 м
[Sc diur, vesp Ac trans Ci fib]
+23.3 +12.7 51 +26 +26 жарко 1008.5 1008.2 8
06 18.04 СЗ 1 10 км 4/0
[Ac lent Ci]
+1.2 +0.7 96 -1 +11 808.5 -2.6
09 18.04 ЮВ 5-8
{11}
7000 м мгла 4/0
[Ci fib]
+28.9 +15.0 43 1009.8 392
12 18.04 С 1 10 км сильная пыльная буря 9/9 600 м
[Cb cap]
+5.0 +2.0 81 +4 +5 808.7
15 18.04 ЮВ 5-7
{10}
8000 м мгла 8/4 1200 м
[Cu med, cong Ac trans]
+27.1 +17.4 55 +31 +31 душно 1005.0 1004.7 33
18 18.04 2000 м в посл. час ливневой дождь н/о +1.8 +1.3 96 +1 +1 809.1 +5.5 310
03 19.04 СЗ 1 20 км пыльная буря 9/8 <50 м
[Sc Ac trans]
+1.3 +0.2 92 +1 +1 803.4 9
06 19.04 С 1 4000 м {снег} 8/3 600 м
[Cb cap Ac lent]
+0.4 -0.2 96 -2 +2 808.7 -1.3 9
09 19.04 В 1 4000 м ливневой снег {гроза} 10/10 600 м
[Cb cap]
+2.2 +1.7 96 0 0 807.0
12 19.04 штиль 0 4000 м {ливн. осадки, снег} 10/10 600 м
[Cb cap]
+2.4 +1.9 96 +1 +1 806.7
18 19.04 С 1 10 км {снег} 9/4 600 м
[Cb cap Ac lent]
+0.8 +0.3 96 -1 -1 805.4 +3.1 5
21 19.04 З 41-2
{6}
40 км 4/4 600 м
[]
+25.6 +12.1 43 +27 +27 жарко 1009.3 1009.0 +21.6 +33.3
00 20.04 С 1 10 км 8/4 600 м
[Cb cap Ac lent]
-1.4 -2.0 96 -4 -4 806.5 360
03 20.04 С 1 10 км {дождь} 9/9 600 м
[Sc]
-1.6 -2.1 96 1
09 20.04 С 2 10 км 10/4 600 м
[Cb cap Ac lent]
+3.2 +1.1 86 +1 +4 807.4
12 20.04 СВ 3-7
{8}
10 км 5/3 1200 м
[Sc Ci fib]
+32.0 +8.1 23 +31 +37 жарко 1008.0 1007.7 307
18 20.04 С 1 10 км 8/8 600 м
[Cb cap]
+1.5 +1.0 96 -1 -1 807.5 +4.5 340
00 21.04 С 2 2000 м 10/3 600 м
[Cb cap Ac lent]
-1.1 -1.7 96 -4 -4 808.0 360
03 21.04 З 15-10
{10}
40 км 4/4 600 м
[]
+21.1 +11.8 55 +23 +23 комфорт 1011.1 1010.7 11
06 21.04 З 11-11
{11}
40 км 4/4 600 м
[]
+25.1 +5.6 29 +25 +25 комфорт 1011.5 1011.2 292
09 21.04 З 16-9
{11}
40 км 4/4 600 м
[]
+28.0 +2.0 19 +26 +26 жарко 1010.2 1009.9 446
18 21.04 З 50 40 км 4/1 1000 м
[Cb cap]
-1.5 -2.1 96 -17 -17 808.0 +2.0
21 21.04 штиль 0-2
{4}
40 км 4/4 600 м
[]
+23.1 +7.3 36 +24 +24 комфорт 1004.8 1004.5 +20.9 +30.6
00 22.04 В 2 10 км 4/0
[Ac lent]
-2.1 -2.7 96 -6 -6 807.7
03 22.04 СЗ 9-16
{17}
2500 м пыльный позёмок 4/0
[Ac trans]
+19.4 -0.6 26 1010.2 8
06 22.04 В 2 10 км 8/3 600 м
[Cu hum Ac lent]
+0.2 -0.4 96 -3 +1 806.9 -2.6 90
09 22.04 С 10-14
{17}
4500 м пыльный позёмок ясно +22.7 -3.3 17 +21 +22 комфорт 1013.7 1013.3 460
12 22.04 С 2 10 км 8/6 600 м
[Cb cap Ac trans]
+2.4 +1.4 93 -0 +3 807.1 360
03 23.04 З 2-3
{3}
10 км ясно +12.8 -0.3 40 +13 +13 1017.1 1016.7 15
06 23.04 З 2-3
{4}
8000 м мгла ясно +23.2 -0.9 20 +22 +33 комфорт 1018.1 1017.7 309
09 23.04 С 4-5
{8}
10 км ясно +25.9 -4.2 13 +23 +38 комфорт 1018.1 1017.8 457
12 23.04 С 1 10 км 8/3 600 м
[Cb cap Ac lent]
+4.0 +0.9 80 +3 +7 815.6 360
15 23.04 ЮВ 4-8
{14}
10 км ясно +23.4 +7.9 37 +24 +24 комфорт 1016.6 1016.2 52
18 23.04 С 1 10 км 6/3 600 м
[Cb cap Ac lent]
+0.4 -0.2 96 -2 -2 816.2 +4.3
21 23.04 З 2-2
{3}
10 км ясно +17.0 +6.4 50 +18 +18 1019.2 1018.8 +11.2 +29.1
00 24.04 С 1 10 км сильная пыльная буря 9/9 600 м
[Sc]
-1.6 -2.2 96 -4 -4 816.0
03 24.04 С 2 10 км 3/0
[Ac lent]
-2.6 -3.0 97
06 24.04 С 1 50 км 4/4 1200 м
[Sc]
+2.9 -4.7 57 +3 +12 опасность
простуды
814.6 -1.8

 

Местоположение метеостанции Аден (Йемен): широта 12.83 долгота 45.03 высота над уровнем моря 3 м.

В архиве по умолчанию представлена погода в Адене за последнюю неделю. Архивные данные за месяц целиком и за предыдущие месяцы, начиная с января 2011 года, Вы можете получить, выбрав интересующий диапазон дат из раскрывающегося списка и нажав кнопку "Ввод!".


*Определитесь, кто Вы:
робот инопланетянин человек

Внимание! Время в таблицах - всемирное. Для получения местного времени необходимо прибавить поправку, которая равна 3 ч.

Смотрите также архив погоды в соседних городах и на ближайших метеорологических станциях:

Погода в Таизе (Йемен) (136 км)
Погода в Дамаре (Йемен) (206 км)
Погода в Джибути () (249 км)
Погода в Марибе (Йемен) (291 км)
Погода в Ходейде (Йемен) (308 км)
Погода в Сане (Йемен) (313 км)
Погода в Хадже (Йемен) (368 км)
Погода в Харгейсе (Сомали) (385 км)
Погода в Босасо (Сомали) (483 км)
Погода в Рийяне (Йемен) (496 км)

Пояснения к столбцам:

Ветер - указаны скорость ветра в м/с - средняя за 10 мин, порывы в срок и между сроками (в фигурных скобках) и направление, откуда дует ветер: С - северный, СВ - северо-восточный, В - восточный, ЮВ - юго-восточный, Ю - южный, ЮЗ - юго-западный, З - западный, СЗ - северо-западный.
Видимость - горизонтальная дальность видимости в метрах или километрах. При видимости от 1 до 10 км при отсутствии осадков обычно наблюдается дымка, при ухудшении видимости до 1 км и менее - туман. В сухую погоду видимость может ухудшаться дымом, пылью или мглою.
Явления - указаны атмосферные явления, наблюдавшиеся в срок или в последний час перед сроком; фигурными скобками обозначены явления, наблюдавшиеся между сроками (за 1-3 часа до срока); квадратными скобками обозначены град или гололедные отложения с указанием их диаметра в мм.
Облачность - указаны через наклонную черту общая и нижняя облачность в баллах и высота нижней границы облаков в метрах; квадратными скобками обозначены формы облаков: Ci - перистые, Cs - перисто-слоистые, Cc - перисто-кучевые, Ac - высококучевые, As - высокослоистые, Sc - слоисто-кучевые, Ns - слоисто-дождевые, Cu - кучевые, Cb - кучево-дождевые. Подробнее классификацию облаков см. в Атласе облаков (PDF).
T - Температура воздуха - температура, измеренная на высоте 2 м над землей.
Td - Температура точки росы - температура, при понижении до которой содержащийся в воздухе водяной пар достигнет насыщения.
f - Относительная влажность воздуха - влажноcть воздуха, измеренная на высоте 2 м над землей.
Te - Эффективная температура - температура, которую ощущает одетый по сезону человек в тени. Характеристика душности погоды. При расчете учитывается влияние влажности воздуха и скорости ветра на теплоощущения человека.
Tes - Эффективная температура на солнце - температура, которую ощущает человек, с поправкой на солнечный нагрев. Характеристика знойности погоды. Зависит от высоты солнца над горизонтом, облачности и скорости ветра. Ночью, в пасмурную погоду, а также при ветре 12 м/с и более поправка равна нулю.
P - Атмосферное давление - приведенное к уровню моря атмосферное давление.
Po - Атмосферное давление - измеренное на уровне метеостанции атмосферное давление.
Tmin - Минимальная температура - минимум температуры воздуха на высоте 2 м над землей.
Tmax - Максимальная температура - максимум температуры воздуха на высоте 2 м над землей.
R - Количество осадков - Количество выпавших осадков за период времени, мм. При наведении курсора мыши на число - период времени, за который выпало указанное количество осадков.
R24 - Количество осадков - Количество выпавших осадков за 24 часа, мм.
S - Снежный покров - Высота снежного покрова, см. При наведении курсора мыши на число - состояние снежного покрова и степень покрытия местности в баллах.